Regional Weather Roundup
Issued by NWS

Home | Current Version | Previous Version | Text Only | Print | Product List | Glossary On
Versions: 1 2 3 4 5 6 7 8 9 10 11 12 13 14 15 16 17 18 19 20 21 22 23 24 25 26 27 28 29 30 31 32 33 34 35 36 37 38 39 40 41 42 43 44 45 46 47 48 49 50
799
ASUS43 KDTX 061501
RWRMI
MICHIGAN HOURLY REGIONAL WEATHER ROUNDUP
NATIONAL WEATHER SERVICE DETROIT/PONTIAC MI
1100 AM EDT FRI MAY 06 2016

NOTE: "FAIR" INDICATES FEW OR NO CLOUDS BELOW 12,000 FEET WITH NO
SIGNIFICANT WEATHER AND/OR OBSTRUCTION TO VISIBILITY.

MIZ047>049-052>055-059>063-066>070-074>076-081>083-061600-
SOUTHEAST LOWER MICHIGAN

CITY           SKY/WX    TMP DP  RH WIND       PRES   REMARKS
ADRIAN         SUNNY     62  41  46 NE5       29.99S
ALMA           SUNNY     61  41  49 SW3       29.97F
BAD AXE        SUNNY     60  42  50 CALM      29.97S
CARO           SUNNY     62  44  53 NW5       29.97S
DETROIT CITY   SUNNY     63  42  46 N8        29.96S
DETROIT        PTSUNNY   63  45  51 W5        29.97F
FLINT          SUNNY     65  40  39 W5        29.97F
GROSSE ILE     SUNNY     63  45  51 NE5       29.95S
HILLSDALE      SUNNY     60  39  47 CALM      29.99S
HOWELL         SUNNY     62  41  46 W7        29.98S

CITY           SKY/WX    TMP DP  RH WIND       PRES   REMARKS
JACKSON        SUNNY     62  42  47 VRB3      29.99S
LAMBERTVILLE   SUNNY     63  43  47 N3        29.98S
LANSING        SUNNY     61  44  53 NW6       29.98F
LAPEER         FAIR      61  40  44 N8        29.97F
MASON          SUNNY     61  46  57 W6        29.98S
MONROE         SUNNY     61  46  56 N3        29.97R
MT. CLEMENS    SUNNY     62  44  51 N10       29.95S
PONTIAC        MOSUNNY   62  38  40 NW8       29.96S
PORT HOPE        N/A     54  42  64 NW5       29.96R
PORT HURON     SUNNY     61  41  48 NE6       29.96S
TRI CITIES     SUNNY     61  43  51 S3        29.97F
MIDLAND        FAIR      63  40  41 W5        29.95F
TROY           SUNNY     64  43  46 N6        29.98S
$$
MIZ043>046-050>051-056>058-064>065-071>073-077>080-061600-
SOUTHWEST LOWER MICHIGAN

CITY           SKY/WX    TMP DP  RH WIND       PRES   REMARKS
BATTLE CREEK   SUNNY     60  39  45 VRB3      30.00S
BENTON HARBOR  CLOUDY    59  41  51 W6        30.00S
BIG RAPIDS     SUNNY     63  35  34 SW3       29.95F
COLDWATER      SUNNY     60  41  49 NW5       30.00S
FREMONT        FAIR      60  39  44 S5        29.96F
HOLLAND        SUNNY    N/A N/A N/A SW6       29.99S
GRAND RAPIDS   MOSUNNY   62  41  46 W6        29.99S
IONIA          FAIR      59  37  44 W3        29.98S
KALAMAZOO      SUNNY     61  38  42 CALM      30.00S
LUDINGTON      SUNNY     62  42  47 SW9       29.95S
MARSHALL       SUNNY     60  44  54 CALM      29.99S
MOUNT PLEASANT SUNNY     62  40  44 SW3       29.96S
MUSKEGON       MOSUNNY   59  40  49 SW7       29.97F
$$
MIZ016>042-061600-
NORTHERN LOWER MICHIGAN

CITY           SKY/WX    TMP DP  RH WIND       PRES   REMARKS
ALPENA         SUNNY     63  35  35 VRB3      29.94F
BEAVER ISLAND  CLOUDY    61  37  40 S8        29.90F
BELLAIRE       SUNNY     63  38  39 SW5       29.93R
CADILLAC       SUNNY     63  42  45 SW6       29.93F
CHARLEVOIX     SUNNY     63  38  39 SW6       29.94S
FRANKFORT      SUNNY     62  40  44 SW9       29.92S
GAYLORD        SUNNY     64  36  35 S5        29.93S
GRAYLING       SUNNY     65  37  36 W5        29.94S
HARBOR SPRINGS SUNNY     61  38  42 CALM      29.92S
HOUGHTON LAKE  SUNNY     60  38  43 SW3       29.95F
MANISTEE       SUNNY     63  41  45 S7        29.95R
OSCODA         SUNNY     62  40  44 E7        29.95S
PELLSTON       SUNNY     66  37  34 W9        29.91F
ROGERS CITY    SUNNY     61  36  40 E6        29.93F
TRAVERSE CITY  MOSUNNY   65  39  38 S8        29.91F
$$
MIZ007>008-015-061600-
EASTERN UPPER MICHIGAN

CITY           SKY/WX    TMP DP  RH WIND       PRES   REMARKS
KINROSS          N/A     61  39  44 S7        29.90F
MACKINAC ISLAN SUNNY     58  35  42 W3        29.91S
NEWBERRY       SUNNY     59  40  48 S7        29.88S
S. S. MARIE    SUNNY     60  40  47 VRB3      29.89F
MUNISING         N/A     67  41  38 S15G23    29.81S
$$
MIZ004>006-011>014-085-061600-
CENTRAL UPPER MICHIGAN

CITY           SKY/WX    TMP DP  RH WIND       PRES   REMARKS
MANISTIQUE     SUNNY     49  41  74 S9G18     29.88S
ESCANABA       SUNNY     57  41  54 S13       29.85S
MENOMINEE      SUNNY     68  43  40 SE10      29.85F
SAWYER-GWINN   SUNNY     64  41  42 SW9       29.84F
$$
MIZ001>003-009>011-084-061600-
WESTERN UPPER MICHIGAN

CITY           SKY/WX    TMP DP  RH WIND       PRES   REMARKS
IRON MOUNTAIN  SUNNY     72  41  32 CALM      29.81F
HOUGHTON       SUNNY     70  42  36 S6        29.75F
COPPER HARBOR    N/A     66  41  40 SW9G16    29.73F
IRONWOOD         N/A     79  43  27 W10       29.76F
$$

ABBREVIATIONS USED IN REMARKS
   TC - TEMPERATURE IN CELSIUS
  WCI - WIND CHILL INDEX
   HX - HEAT INDEX
  VSB - VISIBILITY





USA.gov is the U.S. government's official web portal to all federal, state and local government web resources and services.